This demonstration page uses our WeatherBlox Daily Observations layout. Learn more.

Left ArrowRight Arrow

41.12389, -100.76542

Hourly Observations for July 29, 2018

Temp ( °F °C ) Dew Point ( °F °C ) Humidity (%) Winds ( mph kmh ) Pressure ( in mb ) Visibility ( mi km ) Precip ( " mm )
12:20 am 00:20 Mostly Cloudy 65 18.3 65 18.3 100 100 SW 3 6 30.06 1018 10 16 0.00 0.00
12:53 am 00:53 Cloudy 66 18.9 66 18.9 100 100 S 3 6 30.08 1019 10 16 0.00 0.00
1:53 am 01:53 Cloudy 67 19.4 67 19.4 100 100 NE 3 6 30.07 1018 8 13 0.00 0.00
2:05 am 02:05 Cloudy 67 19.4 67 19.4 100 100 NNE 5 7 30.03 1017 7 11 0.00 0.00
2:31 am 02:31 Mostly Cloudy with Mist and Fog 66 18.9 66 18.9 100 100 NE 7 11 30.03 1017 6 10 0.00 0.00
2:53 am 02:53 Cloudy with Mist and Fog 67 19.4 67 19.4 100 100 NNE 8 13 30.07 1018 4 6 0.00 0.00
3:03 am 03:03 Cloudy with Mist and Fog 66 18.9 66 18.9 100 100 NNE 7 11 30.06 1018 3 5 0.00 0.00
3:11 am 03:11 Cloudy with Mist and Fog 66 18.9 66 18.9 100 100 NE 6 9 30.06 1018 3 4 0.00 0.00
3:22 am 03:22 Cloudy with Mist and Fog 66 18.9 66 18.9 100 100 NNE 8 13 30.06 1018 4 6 0.00 0.00
3:38 am 03:38 Cloudy with Mist and Fog 66 18.9 66 18.9 100 100 NNE 5 7 30.06 1018 5 8 0.00 0.00
3:45 am 03:45 Cloudy with Mist and Fog 66 18.9 66 18.9 100 100 NNE 6 9 30.06 1018 5 8 0.00 0.00
3:53 am 03:53 Cloudy with Mist and Fog 66 18.9 66 18.9 100 100 NNE 6 9 30.07 1018 6 10 0.00 0.00
4:35 am 04:35 Partly Cloudy with Mist and Fog 65 18.3 65 18.3 100 100 NE 9 15 30.03 1017 5 8 0.00 0.00
4:44 am 04:44 Mostly Cloudy with Mist and Fog 65 18.3 65 18.3 100 100 NE 8 13 30.06 1018 5 8 0.00 0.00
4:53 am 04:53 Mostly Cloudy with Mist and Fog 65 18.3 65 18.3 100 100 NE 9 15 30.06 1018 5 8 0.00 0.00
5:09 am 05:09 Partly Cloudy with Mist and Fog 64 17.8 64 17.8 100 100 NE 9 15 30.09 1019 6 10 0.00 0.00
5:38 am 05:38 Mostly Cloudy with Mist and Fog 64 17.8 64 17.8 100 100 E 9 15 30.03 1017 6 10 0.00 0.00
5:53 am 05:53 Cloudy with Mist and Fog 64 17.8 64 17.8 100 100 ENE 9 15 30.06 1018 6 10 0.00 0.00
6:09 am 06:09 Cloudy 65 18.3 65 18.3 100 100 NE 6 9 30.03 1017 8 13 0.00 0.00
6:53 am 06:53 Cloudy 65 18.3 65 18.3 100 100 ESE 3 6 30.08 1019 8 13 0.00 0.00
7:22 am 07:22 Cloudy 65 18.3 65 18.3 100 100 ENE 3 6 30.06 1018 10 16 0.00 0.00
7:53 am 07:53 Cloudy 65 18.3 64 17.8 97 97 Calm 30.10 1019 10 16 0.00 0.00
8:12 am 08:12 Mostly Cloudy 66 18.9 65 18.3 96 96 ENE 5 7 30.06 1018 10 16 0.00 0.00
8:41 am 08:41 Partly Cloudy 67 19.4 64 17.8 91 91 ENE 6 9 30.06 1018 10 16 0.00 0.00
8:53 am 08:53 Mostly Sunny 67 19.4 65 18.3 93 93 VRB 5 7 30.11 1020 10 16 0.00 0.00
9:33 am 09:33 Mostly Cloudy 68 20 63 17.2 84 84 NE 7 11 30.06 1018 10 16 0.00 0.00
9:53 am 09:53 Cloudy 69 20.6 63 17.2 81 81 E 7 11 30.12 1020 10 16 0.00 0.00
10:35 am 10:35 Mostly Cloudy 71 21.7 62 16.7 73 73 SE 3 6 30.03 1017 10 16 0.00 0.00
10:53 am 10:53 Cloudy 70 21.1 63 17.2 79 79 Calm 30.14 1021 10 16 0.00 0.00
11:53 am 11:53 Sunny 73 22.8 64 17.8 74 74 ESE 8 13 30.12 1020 10 16 0.00 0.00
12:53 pm 12:53 Mostly Sunny 75 23.9 64 17.8 69 69 undefined N/A 30.11 1020 10 16 0.00 0.00
1:53 pm 13:53 Sunny 76 24.4 63 17.2 64 64 SSW 3 6 30.09 1019 10 16 0.00 0.00
2:53 pm 14:53 Partly Cloudy 78 25.6 64 17.8 62 62 VRB 5 7 30.08 1019 10 16 0.00 0.00
3:53 pm 15:53 Mostly Cloudy 78 25.6 64 17.8 62 62 Calm 30.06 1018 10 16 0.00 0.00
4:53 pm 16:53 Mostly Cloudy 76 24.4 66 18.9 72 72 NNW 6 9 30.08 1019 10 16 0.00 0.00
5:53 pm 17:53 Mostly Sunny 75 23.9 65 18.3 71 71 NE 9 15 30.05 1018 10 16 0.00 0.03
6:53 pm 18:53 Cloudy 75 23.9 65 18.3 71 71 ENE 10 17 30.05 1018 10 16 0.00 0.00
7:53 pm 19:53 Sunny 73 22.8 65 18.3 76 76 E 10 17 30.05 1018 10 16 0.00 0.00
8:42 pm 20:42 Cloudy with Nearby Thunderstorms 66 18.9 57 13.9 73 73 E 13 20 30.06 1018 10 16 0.00 0.00
8:53 pm 20:53 Partly Cloudy with Nearby Thunderstorms 65 18.3 57 13.9 76 76 E 8 13 30.09 1019 10 16 0.00 0.00
9:10 pm 21:10 Clear 64 17.8 59 15 84 84 Calm 30.09 1019 10 16 0.00 0.00
9:53 pm 21:53 Partly Cloudy 62 16.7 60 15.6 93 93 E 10 17 30.11 1020 10 16 0.00 0.00
10:53 pm 22:53 Clear 61 16.1 59 15 93 93 ENE 3 6 30.14 1021 10 16 0.00 0.00
11:53 pm 23:53 Mostly Clear 59 15 59 15 100 100 Calm 30.14 1021 10 16 0.00 0.00

Powered by AerisWeather